Phoenix, AZ

6:15 AM MST on May 30, 2017 (GMT -0700)
Phoenix Sky Harbor International

Weather History for KPHX - January, 2013

Change the Weather History Date:

Friday, January 4, 2013

  Actual Average Record
Temperature  
Mean Temperature 52 °F 55 °F  
Max Temperature 62 °F 66 °F 83 °F (1927)
Min Temperature 41 °F 45 °F 23 °F (1950)
Degree Days  
Heating Degree Days 13 10  
Month to date heating degree days 60 40  
Since 1 July heating degree days 341 441  
Cooling Degree Days 0 0  
Month to date cooling degree days 0 0  
Year to date cooling degree days 0 0  
Growing Degree Days 2 (Base 50)    
Moisture  
Dew Point 20 °F    
Average Humidity 33    
Maximum Humidity 45    
Minimum Humidity 20    
Precipitation  
Precipitation 0.00 in 0.03 in 0.65 in (1995)
Month to date precipitation 0.00 0.12  
Year to date precipitation 0.00 0.12  
Snow  
Snow 0.00 in - - ()
Month to date snowfall 0.0  
Year to date snowfall 0.0  
Since 1 July snowfall 0.0  
Snow Depth 0.00 in    
Sea Level Pressure  
Sea Level Pressure 30.23 in    
Wind  
Wind Speed 6 mph (East)    
Max Wind Speed 18 mph    
Max Gust Speed 23 mph    
Visibility 10 miles    
Events      
T = Trace of Precipitation, MM = Missing Value Source: NWS Daily Summary

Daily Weather History Graph

Daily Weather History Graph

Search for Another Location

Airport or City:

Trip Planner

Search our weather history database for the weather conditions in past years. The results will help you decide how hot, cold, wet, or windy it might be!

Date:

Astronomy

Jan. 04, 2013 Rise Set
Actual Time 7:32 AM MST 5:33 PM MST
Civil Twilight 7:05 AM MST 6:01 PM MST
Nautical Twilight 6:34 AM MST 6:32 PM MST
Astronomical Twilight 6:04 AM MST 7:02 PM MST
Moon No Moon Rise 11:40 AM MST (1/4)
Length of Visible Light 10h 56m
Length of Day
10h 01m
Waning Gibbous, 54% of the Moon is Illuminated
Jan 4
Waning Gibbous
Jan 4
Last Quarter
Jan 11
New
Jan 18
First Quarter
Jan 26
Full

Hourly Weather History & Observations

Time (MST) Temp. Windchill Dew Point Humidity Pressure Visibility Wind Dir Wind Speed Gust Speed Precip Events Conditions
12:51 AM 50.0 °F - 15.1 °F 25% 30.19 in 10.0 mi ENE 6.9 mph - N/A   Clear
1:51 AM 48.0 °F - 16.0 °F 28% 30.20 in 10.0 mi Variable 3.5 mph - N/A   Clear
2:51 AM 42.1 °F 39.2 °F 15.1 °F 34% 30.22 in 10.0 mi SW 4.6 mph - N/A   Clear
3:51 AM 46.9 °F - 16.0 °F 29% 30.21 in 10.0 mi ENE 8.1 mph - N/A   Clear
4:51 AM 41.0 °F - 17.1 °F 38% 30.22 in 10.0 mi Calm Calm - N/A   Clear
5:51 AM 41.0 °F - 18.0 °F 40% 30.24 in 10.0 mi Calm Calm - N/A   Clear
6:51 AM 46.9 °F - 17.1 °F 30% 30.25 in 10.0 mi ENE 8.1 mph - N/A   Clear
7:51 AM 46.9 °F - 18.0 °F 32% 30.26 in 10.0 mi ENE 13.8 mph - N/A   Clear
8:51 AM 48.9 °F - 18.0 °F 29% 30.28 in 10.0 mi ENE 10.4 mph - N/A   Partly Cloudy
9:51 AM 51.1 °F - 19.0 °F 28% 30.28 in 10.0 mi East 17.3 mph - N/A   Partly Cloudy
10:51 AM 53.1 °F - 21.0 °F 29% 30.28 in 10.0 mi ENE 17.3 mph - N/A   Clear
11:51 AM 55.0 °F - 21.9 °F 28% 30.26 in 10.0 mi ENE 6.9 mph - N/A   Clear
12:51 PM 57.9 °F - 23.0 °F 26% 30.21 in 10.0 mi East 9.2 mph - N/A   Clear
1:51 PM 60.1 °F - 21.0 °F 22% 30.19 in 10.0 mi Calm Calm - N/A   Clear
2:51 PM 60.8 °F - 21.2 °F 22% 30.19 in 10.0 mi East 6.9 mph 18.4 mph N/A   Clear
3:51 PM 60.1 °F - 19.9 °F 21% 30.19 in 10.0 mi Variable 3.5 mph - N/A   Clear
4:51 PM 60.1 °F - 19.0 °F 20% 30.19 in 10.0 mi Calm Calm - N/A   Clear
5:51 PM 57.0 °F - 21.9 °F 26% 30.19 in 10.0 mi South 3.5 mph - N/A   Clear
6:51 PM 55.9 °F - 21.9 °F 27% 30.20 in 10.0 mi Calm Calm - N/A   Clear
7:51 PM 51.1 °F - 26.1 °F 38% 30.22 in 10.0 mi Calm Calm - N/A   Clear
8:51 PM 53.1 °F - 23.0 °F 31% 30.23 in 10.0 mi NW 3.5 mph - N/A   Clear
9:51 PM 48.0 °F - 25.0 °F 41% 30.24 in 10.0 mi Calm Calm - N/A   Clear
10:51 PM 46.0 °F 44.8 °F 26.1 °F 46% 30.25 in 10.0 mi East 3.5 mph - N/A   Clear
11:51 PM 45.0 °F 42.6 °F 25.0 °F 46% 30.24 in 10.0 mi ESE 4.6 mph - N/A   Clear